Flag for Germany Weather past 2 weeks in Burg, Saxony-Anhalt, Germany

Now
58 °F

Passing clouds.


Feels Like: 58 °F
Forecast: 62 / 83 °F
Wind: No wind

Location: Magdeburg

Current Time: Aug 1, 2014 at 3:43:25 AM

Latest Report: Aug 1, 2014 at 3:00 AM


Visibility: 9 mi

Pressure: 29.98 "Hg

Humidity: 93%

Dew point: 56 °F

Location of BurgLocation

Historic Weather in Burg — Graph

°F

Burg temperature yesterday

Maximum temperature yesterday: 76 °F (at 6:00 PM)
Minimum temperature yesterday: 57 °F (at 4:00 AM)
Average temperature yesterday: 67 °F

Past Weeks' High & Low Weather Summary

 TemperatureHumidityPressure
High93 °F (Jul 20, 3:00 PM)98% (Jul 26, 6:00 AM)30.20 "Hg (Jul 26, 6:00 AM)
Low57 °F (Jul 31, 4:00 AM)20% (Jul 19, 6:00 PM)29.71 "Hg (Jul 30, 4:00 AM)
Average72 °F68%29.94 "Hg
* Reported Jul 17 2:00 AM — Aug 1 2:00 AM, Burg, Weather by CustomWeather, © 2014

Note: Actual official high and low records may vary slightly from our data, if they occured in-between our weather recording intervals... More about our weather records

Advertising

Burg weather history for previous 24 hours

 ConditionsComfort  
Time TempWeatherWind HumidityBarometerVisibility
2:00 AM
Aug 1
58 °FClear.1 mph90%29.98 "Hg11 mi
1:00 AM60 °FPassing clouds.1 mph89%29.98 "Hg12 mi
12:00 AM61 °FClear.1 mph87%29.98 "Hg12 mi
11:00 PM
Jul 31
62 °FClear.1 mph83%29.98 "Hg15 mi
10:00 PM63 °FPassing clouds.1 mph81%29.97 "Hg18 mi
9:00 PM68 °FScattered clouds.1 mph66%29.96 "Hg22 mi
8:00 PM74 °FPassing clouds.1 mph47%29.95 "Hg28 mi
7:00 PM76 °FScattered clouds.2 mph43%29.95 "Hg22 mi
6:00 PM76 °FScattered clouds.2 mph44%29.95 "Hg25 mi
5:00 PM75 °FScattered clouds.2 mph46%29.96 "Hg37 mi
4:00 PM76 °FScattered clouds.2 mph45%29.96 "Hg37 mi
3:00 PM76 °FScattered clouds.2 mph44%29.97 "Hg37 mi
2:00 PM73 °FScattered clouds.2 mph50%29.98 "Hg37 mi
1:00 PM72 °FScattered clouds.2 mph52%29.98 "Hg31 mi
12:00 PM71 °FScattered clouds.2 mph59%29.99 "Hg31 mi
11:00 AM69 °FPartly sunny.2 mph65%29.99 "Hg31 mi
10:00 AM66 °FOvercast.2 mph73%29.99 "Hg31 mi
9:00 AM64 °FPartly sunny.2 mph75%29.99 "Hg25 mi
8:00 AM62 °FSunny.1 mph83%29.98 "Hg19 mi
7:00 AM59 °FSunny.2 mph91%29.97 "Hg16 mi
6:00 AM57 °FPassing clouds.1 mph93%29.95 "Hg12 mi
5:00 AM57 °FClear.2 mph92%29.95 "Hg10 mi
4:00 AM57 °FClear.1 mph93%29.93 "Hg11 mi
3:00 AM59 °FClear.1 mph89%29.93 "Hg18 mi
Weather by CustomWeather, © 2014

See weather overviewHow to use our weather pages